ELEKTRO-L 4

Last updated on Tue Sep 22 2026 00:03:16 GMT+0000 (Coordinated Universal Time)

1 55506U 23016A 26264.53834602 -.00000062 00000+0 00000+0 0 9991 2 55506 0.0676 58.8341 0002225 137.4964 163.6754 1.00270607 13296
UTC large
Height (km)
Speed (km/s)
/
Latitude / Longitude
Inclination (degrees)
Orbital Period (minutes)
Azimuth
Elevation
Range (km)
Doppler Factor

Next 0 passes for location: London (51.5072 / 0.1276)

No passes found over London.
ELEKTRO-L 4